This demonstration page uses our WeatherBlox Daily Observations layout. Learn more.

Left ArrowRight Arrow

Hourly Observations for June 4, 2017

Temp ( °F °C ) Dew Point ( °F °C ) Humidity (%) Winds ( mph kmh ) Pressure ( in mb ) Visibility ( mi km ) Precip ( " mm )
12:59 am 00:59 Mostly Clear 70 21.1 56 13.3 61 61 ESE 8 13 30.04 1017 10 16 0.00 0.00
1:59 am 01:59 Clear 69 20.6 54 12.2 59 59 SE 6 9 30.04 1017 10 16 0.00 0.00
2:59 am 02:59 Mostly Clear 67 19.4 55 12.8 66 66 Calm 30.04 1017 10 16 0.00 0.00
3:59 am 03:59 Mostly Clear 63 17.2 55 12.8 76 76 Calm 30.04 1017 10 16 0.00 0.00
4:59 am 04:59 Partly Cloudy 62 16.7 55 12.8 78 78 Calm 30.04 1017 10 16 0.00 0.00
5:59 am 05:59 Partly Cloudy 64 17.8 54 12.2 70 70 SSE 3 6 30.05 1018 10 16 0.00 0.00
6:59 am 06:59 Partly Cloudy 68 20 56 13.3 65 65 SSE 5 7 30.04 1017 10 16 0.00 0.00
7:59 am 07:59 Partly Cloudy 72 22.2 56 13.3 57 57 SSE 9 15 30.04 1017 10 16 0.00 0.00
8:59 am 08:59 Partly Cloudy 76 24.4 60 15.6 58 58 S 10 17 30.04 1017 10 16 0.00 0.00
9:59 am 09:59 Mostly Sunny 80 26.7 62 16.7 54 54 S 7 11 30.04 1017 10 16 0.00 0.00
10:59 am 10:59 Mostly Sunny 84 28.9 60 15.6 44 44 W 3 6 30.03 1017 10 16 0.00 0.00
11:59 am 11:59 Mostly Sunny 85 29.4 57 13.9 39 39 Calm 30.01 1016 10 16 0.00 0.00
12:59 pm 12:59 Partly Cloudy 86 30 56 13.3 36 36 VRB 7 11 29.98 1015 10 16 0.00 0.00
1:59 pm 13:59 Partly Cloudy 88 31.1 56 13.3 34 34 SW 9 15 29.96 1014 10 16 0.00 0.00
2:59 pm 14:59 Partly Cloudy 89 31.7 54 12.2 30 30 SW 9 15 29.93 1014 10 16 0.00 0.00
3:59 pm 15:59 Partly Cloudy 89 31.7 51 10.6 27 27 SW 8 13 29.90 1013 7 11 0.00 0.00
4:59 pm 16:59 Partly Cloudy 89 31.7 53 11.7 29 29 SW 8 13 29.89 1012 10 16 0.00 0.00
5:59 pm 17:59 Partly Cloudy 88 31.1 55 12.8 33 33 SW 10 17 29.88 1012 10 16 0.00 0.00
6:59 pm 18:59 Mostly Cloudy 86 30 57 13.9 37 37 S 8 13 29.88 1012 10 16 0.00 0.00
7:59 pm 19:59 Mostly Cloudy 83 28.3 63 17.2 51 51 S 7 11 29.88 1012 10 16 0.00 0.00
8:59 pm 20:59 Mostly Cloudy 82 27.8 67 19.4 60 60 S 7 11 29.89 1012 10 16 0.00 0.00
9:59 pm 21:59 Mostly Cloudy 82 27.8 68 20 63 63 VRB 7 11 29.88 1012 10 16 0.00 0.00
10:06 pm 22:06 Cloudy with Thunderstorms 81 27.2 68 20 65 65 S 9 15 29.88 1012 10 16 0.00 0.00
10:20 pm 22:20 Cloudy with Thunderstorms 81 27.2 68 20 65 65 SSW 12 19 29.91 1013 10 16 0.00 0.03
10:27 pm 22:27 Cloudy with Thunderstorms 76 24.4 66 18.9 72 72 W 25 41 29.94 1014 2 3 0.09 2.29
10:29 pm 22:29 Cloudy with Thunderstorms 72 22.2 65 18.3 79 79 W 28 44 29.94 1014 1 2 0.15 3.81
10:37 pm 22:37 Cloudy with Thunderstorms 70 21.1 66 18.9 87 87 WNW 16 26 29.94 1014 1 1 0.36 9.14
10:41 pm 22:41 Cloudy with Thunderstorms 71 21.7 66 18.9 84 84 WNW 9 15 29.94 1014 7 11 0.40 10.16
10:59 pm 22:59 Cloudy with Thunderstorms 73 22.8 67 19.4 81 81 SW 8 13 29.92 1013 8 13 0.40 10.16
11:18 pm 23:18 Cloudy with Light Rain 72 22.2 67 19.4 84 84 SSW 10 17 29.91 1013 9 14 0.01 0.25
11:59 pm 23:59 Mostly Cloudy 71 21.7 67 19.4 87 87 SSW 9 15 29.91 1013 9 14 0.01 0.25

Powered by AerisWeather